This demonstration page uses our WeatherBlox Daily Observations layout. Learn more.

Left ArrowRight Arrow

Hourly Observations for June 21, 2017

Temp ( °F °C ) Dew Point ( °F °C ) Humidity (%) Winds ( mph kmh ) Pressure ( in mb ) Visibility ( mi km ) Precip ( " mm )
12:51 am 00:51 Clear 88 31.1 44 6.7 22 22 SE 6 9 29.66 1005 10 16 N/A
1:51 am 01:51 Clear 87 30.6 47 8.3 25 25 E 9 15 29.66 1004 10 16 N/A
2:51 am 02:51 Clear 89 31.7 41 5 19 19 E 9 15 29.65 1004 10 16 N/A
3:51 am 03:51 Clear 84 28.9 42 5.6 23 23 E 8 13 29.66 1004 10 16 N/A
4:51 am 04:51 Clear 79 26.1 45 7.2 30 30 NNW 7 11 29.68 1005 10 16 N/A
5:51 am 05:51 Sunny 81 27.2 45 7.2 28 28 SW 3 6 29.70 1006 10 16 N/A
6:51 am 06:51 Sunny 86 30 46 7.8 25 25 N 3 6 29.71 1006 10 16 N/A
7:51 am 07:51 Sunny 92 33.3 44 6.7 19 19 N N/A 29.71 1006 10 16 N/A
8:51 am 08:51 Sunny 98 36.7 41 5 14 14 E 10 17 29.70 1006 10 16 N/A
9:51 am 09:51 Sunny 100 37.8 43 6.1 14 14 SE 8 13 29.70 1006 10 16 N/A
10:51 am 10:51 Sunny 104 40 43 6.1 12 12 SSE 8 13 29.68 1005 10 16 N/A
11:51 am 11:51 Sunny 108 42.2 43 6.1 11 11 S 10 17 29.65 1004 10 16 N/A
12:51 pm 12:51 Sunny 109 42.8 41 5 10 10 VRB 6 9 29.61 1003 10 16 N/A
1:51 pm 13:51 Sunny 110 43.3 37 2.8 8 8 SW 8 13 29.57 1001 10 16 N/A
2:51 pm 14:51 Sunny 110 43.3 36 2.2 8 8 WNW 5 7 29.54 1001 10 16 N/A
3:47 pm 15:47 Sunny 108 42 39 4 10 10 NE 21 33 29.41 996 10 16 N/A
3:51 pm 15:51 Sunny 108 42.2 40 4.4 10 10 NE 17 28 29.54 1001 10 16 N/A
4:51 pm 16:51 Sunny 108 42.2 38 3.3 9 9 NNE 10 17 29.54 1001 10 16 N/A
5:51 pm 17:51 Sunny 107 41.7 38 3.3 9 9 S 12 19 29.54 1001 10 16 N/A
6:09 pm 18:09 Sunny 103 39.4 43 6.1 13 13 SW 24 39 29.44 997 10 16 N/A
6:51 pm 18:51 Sunny 100 37.8 43 6.1 14 14 SSW 14 22 29.57 1001 10 16 N/A
7:51 pm 19:51 Clear 96 35.6 44 6.7 17 17 SE 10 17 29.59 1002 10 16 N/A
8:51 pm 20:51 Clear 94 34.4 44 6.7 18 18 ESE 13 20 29.59 1002 10 16 N/A
9:51 pm 21:51 Clear 91 32.8 48 8.9 23 23 E 13 20 29.61 1003 10 16 N/A
10:51 pm 22:51 Clear 89 31.7 47 8.3 23 23 SSW 9 15 29.63 1003 10 16 N/A
11:51 pm 23:51 Clear 84 28.9 46 7.8 27 27 ESE 6 9 29.62 1003 10 16 N/A

Powered by AerisWeather